Find Starlink 37133

NORAD ID: 68265 Int'l Des: 2026-055 Owner: SPXS Country: US Constellation: starlink operational
LEOCIRCULAR

Live Position

Loading 3D Globe...

About Starlink 37133

Description loading...

Upcoming Passes

Passes for default location (London). Set your location on the main map for personalized predictions.

Altitude History

Loading altitude history...

Two-Line Element Set

1 68265U 26055D 26124.16668980 .00021748 00000-0 74483-3 0 9995
2 68265 53.1604 62.2435 0001383 90.7572 335.2276 15.30174064 5908
Epoch: May 4, 2026 • Age: 10 hours

Current Status

Altitude 476.0 km
Velocity 7.63 km/s
Sub-Earth Point 0.93°N, 168.72°E
Launch Date Mar 19, 2026
Age 0.1 years
Type internet

Technical Details

Classification Payload
Mass 575.00 kg
Dry Mass 530.00 kg
Total Mass 575.00 kg
Length 0.30 m
Diameter 4.10 m
Span 29.00 m
Shape Box + pan
Manufacturer SPXS
Bus Type Starlink V2MO
Phase Status In Orbit
Owner/State SPXS/US

Most Searched